Year,Month,Day,Hour,Minute,Value (Times are PST for temperature in C)
2024,05,04,00,00,12.80
2024,05,04,00,01,12.70
2024,05,04,00,02,12.70
2024,05,04,00,03,12.70
2024,05,04,00,04,12.70
2024,05,04,00,05,12.70
2024,05,04,00,06,12.60
2024,05,04,00,07,12.60
2024,05,04,00,08,12.60
2024,05,04,00,09,12.60
2024,05,04,00,10,12.60
2024,05,04,00,11,12.60
2024,05,04,00,12,12.60
2024,05,04,00,13,12.60
2024,05,04,00,14,12.60
2024,05,04,00,15,12.50
2024,05,04,00,16,12.60
2024,05,04,00,17,12.50
2024,05,04,00,18,12.50
2024,05,04,00,19,12.50
2024,05,04,00,20,12.50
2024,05,04,00,21,12.50
2024,05,04,00,22,12.50
2024,05,04,00,23,12.50
2024,05,04,00,24,12.50
2024,05,04,00,25,12.50
2024,05,04,00,26,12.50
2024,05,04,00,27,12.50
2024,05,04,00,28,12.50
2024,05,04,00,29,12.50
2024,05,04,00,30,12.50
2024,05,04,00,31,12.50
2024,05,04,00,32,12.50
2024,05,04,00,33,12.50
2024,05,04,00,34,12.50
2024,05,04,00,35,12.50
2024,05,04,00,36,12.50
2024,05,04,00,37,12.50
2024,05,04,00,38,12.50
2024,05,04,00,39,12.50
2024,05,04,00,40,12.50
2024,05,04,00,41,12.50
2024,05,04,00,42,12.50
2024,05,04,00,43,12.50
2024,05,04,00,44,12.50
2024,05,04,00,45,12.50
2024,05,04,00,46,12.50
2024,05,04,00,47,12.50
2024,05,04,00,48,12.50
2024,05,04,00,49,12.50
2024,05,04,00,50,12.50
2024,05,04,00,51,12.50
2024,05,04,00,52,12.40
2024,05,04,00,53,12.40
2024,05,04,00,54,12.40
2024,05,04,00,55,12.40
2024,05,04,00,56,12.40
2024,05,04,00,57,12.40
2024,05,04,00,58,12.40
2024,05,04,00,59,12.40
2024,05,04,01,00,12.40
2024,05,04,01,01,12.40
2024,05,04,01,02,12.40
2024,05,04,01,03,12.40
2024,05,04,01,04,12.40
2024,05,04,01,05,12.40
2024,05,04,01,06,12.40
2024,05,04,01,07,12.40
2024,05,04,01,08,12.40
2024,05,04,01,09,12.40
2024,05,04,01,10,12.40
2024,05,04,01,11,12.40
2024,05,04,01,12,12.40
2024,05,04,01,13,12.40
2024,05,04,01,14,12.30
2024,05,04,01,15,12.30
2024,05,04,01,16,12.30
2024,05,04,01,17,12.30
2024,05,04,01,18,12.30
2024,05,04,01,19,12.30
2024,05,04,01,20,12.30
2024,05,04,01,21,12.20
2024,05,04,01,22,12.20
2024,05,04,01,23,12.20
2024,05,04,01,24,12.20
2024,05,04,01,25,12.20
2024,05,04,01,26,12.20
2024,05,04,01,27,12.20
2024,05,04,01,28,12.20
2024,05,04,01,29,12.20
2024,05,04,01,30,12.20
2024,05,04,01,31,12.20
2024,05,04,01,32,12.20
2024,05,04,01,33,12.20
2024,05,04,01,34,12.20
2024,05,04,01,35,12.20
2024,05,04,01,36,12.20
2024,05,04,01,37,12.20
2024,05,04,01,38,12.20
2024,05,04,01,39,12.20
2024,05,04,01,40,12.20
2024,05,04,01,41,12.20
2024,05,04,01,42,12.20
2024,05,04,01,43,12.20
2024,05,04,01,44,12.20
2024,05,04,01,45,12.20
2024,05,04,01,46,12.20
2024,05,04,01,47,12.20
2024,05,04,01,48,12.20
2024,05,04,01,49,12.20
2024,05,04,01,50,12.20
2024,05,04,01,51,12.20
2024,05,04,01,52,12.20
2024,05,04,01,53,12.20
2024,05,04,01,54,12.20
2024,05,04,01,55,12.10
2024,05,04,01,56,12.10
2024,05,04,01,57,12.10
2024,05,04,01,58,12.10
2024,05,04,01,59,12.10
2024,05,04,02,00,12.10
2024,05,04,02,01,12.10
2024,05,04,02,02,12.10
2024,05,04,02,03,12.10
2024,05,04,02,04,12.10
2024,05,04,02,05,12.10
2024,05,04,02,06,12.10
2024,05,04,02,07,12.10
2024,05,04,02,08,12.00
2024,05,04,02,09,12.10
2024,05,04,02,10,12.00
2024,05,04,02,11,12.00
2024,05,04,02,12,12.00
2024,05,04,02,13,12.00
2024,05,04,02,14,12.00
2024,05,04,02,15,12.00
2024,05,04,02,16,12.00
2024,05,04,02,17,11.90
2024,05,04,02,18,11.90
2024,05,04,02,19,11.90
2024,05,04,02,20,11.90
2024,05,04,02,21,11.90
2024,05,04,02,22,11.90
2024,05,04,02,23,11.90
2024,05,04,02,24,11.80
2024,05,04,02,25,11.80
2024,05,04,02,26,11.80
2024,05,04,02,27,11.80
2024,05,04,02,28,11.80
2024,05,04,02,29,11.80
2024,05,04,02,30,11.80
2024,05,04,02,31,11.80
2024,05,04,02,32,11.70
2024,05,04,02,33,11.70
2024,05,04,02,34,11.70
2024,05,04,02,35,11.70
2024,05,04,02,36,11.70
2024,05,04,02,37,11.70
2024,05,04,02,38,11.70
2024,05,04,02,39,11.70
2024,05,04,02,40,11.70
2024,05,04,02,41,11.60
2024,05,04,02,42,11.60
2024,05,04,02,43,11.60
2024,05,04,02,44,11.60
2024,05,04,02,45,11.60
2024,05,04,02,46,11.60
2024,05,04,02,47,11.50
2024,05,04,02,48,11.50
2024,05,04,02,49,11.50
2024,05,04,02,50,11.50
2024,05,04,02,51,11.40
2024,05,04,02,52,11.40
2024,05,04,02,53,11.40
2024,05,04,02,54,11.40
2024,05,04,02,55,11.40
2024,05,04,02,56,11.40
2024,05,04,02,57,11.40
2024,05,04,02,58,11.40
2024,05,04,02,59,11.40
2024,05,04,03,00,11.30
2024,05,04,03,01,11.40
2024,05,04,03,02,11.40
2024,05,04,03,03,11.40
2024,05,04,03,04,11.40
2024,05,04,03,05,11.40
2024,05,04,03,06,11.40
2024,05,04,03,07,11.40
2024,05,04,03,08,11.40
2024,05,04,03,09,11.50
2024,05,04,03,10,11.50
2024,05,04,03,11,11.50
2024,05,04,03,12,11.50
2024,05,04,03,13,11.50
2024,05,04,03,14,11.50
2024,05,04,03,15,11.50
2024,05,04,03,16,11.50
2024,05,04,03,17,11.50
2024,05,04,03,18,11.50
2024,05,04,03,19,11.50
2024,05,04,03,20,11.50
2024,05,04,03,21,11.50
2024,05,04,03,22,11.40
2024,05,04,03,23,11.40
2024,05,04,03,24,11.40
2024,05,04,03,25,11.40
2024,05,04,03,26,11.40
2024,05,04,03,27,11.40
2024,05,04,03,28,11.40
2024,05,04,03,29,11.40
2024,05,04,03,30,11.40
2024,05,04,03,31,11.40
2024,05,04,03,32,11.40
2024,05,04,03,33,11.40
2024,05,04,03,34,11.40
2024,05,04,03,35,11.40
2024,05,04,03,36,11.40
2024,05,04,03,37,11.40
2024,05,04,03,38,11.30
2024,05,04,03,39,11.30
2024,05,04,03,40,11.30
2024,05,04,03,41,11.30
2024,05,04,03,42,11.30
2024,05,04,03,43,11.30
2024,05,04,03,44,11.30
2024,05,04,03,45,11.30
2024,05,04,03,46,11.30
2024,05,04,03,47,11.30
2024,05,04,03,48,11.30
2024,05,04,03,49,11.30
2024,05,04,03,50,11.30
2024,05,04,03,51,11.30
2024,05,04,03,52,11.30
2024,05,04,03,53,11.30
2024,05,04,03,54,11.30
2024,05,04,03,55,11.30
2024,05,04,03,56,11.30
2024,05,04,03,57,11.30
2024,05,04,03,58,11.30
2024,05,04,03,59,11.30
2024,05,04,04,00,11.30
2024,05,04,04,01,11.30
2024,05,04,04,02,11.30
2024,05,04,04,03,11.30
2024,05,04,04,04,11.30
2024,05,04,04,05,11.30
2024,05,04,04,06,11.30
2024,05,04,04,07,11.30
2024,05,04,04,08,11.30
2024,05,04,04,09,11.30
2024,05,04,04,10,11.30
2024,05,04,04,11,11.30
2024,05,04,04,12,11.30
2024,05,04,04,13,11.30
2024,05,04,04,14,11.30
2024,05,04,04,15,11.30
2024,05,04,04,16,11.30
2024,05,04,04,17,11.30
2024,05,04,04,18,11.30
2024,05,04,04,19,11.30
2024,05,04,04,20,11.30
2024,05,04,04,21,11.30
2024,05,04,04,22,11.30
2024,05,04,04,23,11.30
2024,05,04,04,24,11.30
2024,05,04,04,25,11.30
2024,05,04,04,26,11.30
2024,05,04,04,27,11.20
2024,05,04,04,28,11.20
2024,05,04,04,29,11.20
2024,05,04,04,30,11.20
2024,05,04,04,31,11.10
2024,05,04,04,32,11.10
2024,05,04,04,33,11.10
2024,05,04,04,34,11.10
2024,05,04,04,35,11.10
2024,05,04,04,36,11.10
2024,05,04,04,37,11.10
2024,05,04,04,38,11.10
2024,05,04,04,39,11.00
2024,05,04,04,40,11.00
2024,05,04,04,41,11.00
2024,05,04,04,42,11.00
2024,05,04,04,43,11.00
2024,05,04,04,44,11.00
2024,05,04,04,45,11.00
2024,05,04,04,46,11.00
2024,05,04,04,47,11.00
2024,05,04,04,48,11.00
2024,05,04,04,49,11.00
2024,05,04,04,50,11.00
2024,05,04,04,51,11.00
2024,05,04,04,52,11.00
2024,05,04,04,53,11.00
2024,05,04,04,54,11.00
2024,05,04,04,55,11.00
2024,05,04,04,56,11.00
2024,05,04,04,57,11.00
2024,05,04,04,58,11.00
2024,05,04,04,59,11.00
2024,05,04,05,00,11.00
2024,05,04,05,01,11.00
2024,05,04,05,02,10.90
2024,05,04,05,03,11.00
2024,05,04,05,04,10.90
2024,05,04,05,05,10.90
2024,05,04,05,06,10.90
2024,05,04,05,07,10.90
2024,05,04,05,08,10.90
2024,05,04,05,09,10.90
2024,05,04,05,10,10.90
2024,05,04,05,11,10.90
2024,05,04,05,12,10.90
2024,05,04,05,13,10.90
2024,05,04,05,14,10.90
2024,05,04,05,15,10.90
2024,05,04,05,16,10.90
2024,05,04,05,17,10.90
2024,05,04,05,18,10.90
2024,05,04,05,19,11.00
2024,05,04,05,20,11.00
2024,05,04,05,21,11.00
2024,05,04,05,22,11.00
2024,05,04,05,23,11.00
2024,05,04,05,24,11.00
2024,05,04,05,25,11.10
2024,05,04,05,26,11.10
2024,05,04,05,27,11.10
2024,05,04,05,28,11.10
2024,05,04,05,29,11.10
2024,05,04,05,30,11.10
2024,05,04,05,31,11.10
2024,05,04,05,32,11.10
2024,05,04,05,33,11.10
2024,05,04,05,34,11.10
2024,05,04,05,35,11.10
2024,05,04,05,36,11.00
2024,05,04,05,37,11.00
2024,05,04,05,38,11.00
2024,05,04,05,39,11.00
2024,05,04,05,40,11.00
2024,05,04,05,41,11.00
2024,05,04,05,42,10.90
2024,05,04,05,43,10.90
2024,05,04,05,44,10.90
2024,05,04,05,45,10.80
2024,05,04,05,46,10.80
2024,05,04,05,47,10.80
2024,05,04,05,48,10.80
2024,05,04,05,49,10.80
2024,05,04,05,50,10.80
2024,05,04,05,51,10.70
2024,05,04,05,52,10.70
2024,05,04,05,53,10.70
2024,05,04,05,54,10.70
2024,05,04,05,55,10.70
2024,05,04,05,56,10.70
2024,05,04,05,57,10.70
2024,05,04,05,58,10.70
2024,05,04,05,59,10.70
2024,05,04,06,00,10.70
2024,05,04,06,01,10.70
2024,05,04,06,02,10.70
2024,05,04,06,03,10.60
2024,05,04,06,04,10.60
2024,05,04,06,05,10.60
2024,05,04,06,06,10.60
2024,05,04,06,07,10.70
2024,05,04,06,08,10.70
2024,05,04,06,09,10.70
2024,05,04,06,10,10.70
2024,05,04,06,11,10.70
2024,05,04,06,12,10.70
2024,05,04,06,13,10.70
2024,05,04,06,14,10.70
2024,05,04,06,15,10.70
2024,05,04,06,16,10.70
2024,05,04,06,17,10.70
2024,05,04,06,18,10.80
2024,05,04,06,19,10.80
2024,05,04,06,20,10.80
2024,05,04,06,21,10.80
2024,05,04,06,22,10.80
2024,05,04,06,23,10.80
2024,05,04,06,24,10.80
2024,05,04,06,25,10.80
2024,05,04,06,26,10.80
2024,05,04,06,27,10.80
2024,05,04,06,28,10.80
2024,05,04,06,29,10.80
2024,05,04,06,30,10.80
2024,05,04,06,31,10.80
2024,05,04,06,32,10.80
2024,05,04,06,33,10.80
2024,05,04,06,34,10.80
2024,05,04,06,35,10.80
2024,05,04,06,36,10.80
2024,05,04,06,37,10.80
2024,05,04,06,38,10.80
2024,05,04,06,39,10.80
2024,05,04,06,40,10.80
2024,05,04,06,41,10.80
2024,05,04,06,42,10.80
2024,05,04,06,43,10.80
2024,05,04,06,44,10.70
2024,05,04,06,45,10.70
2024,05,04,06,46,10.70
2024,05,04,06,47,10.70
2024,05,04,06,48,10.70
2024,05,04,06,49,10.70
2024,05,04,06,50,10.70
2024,05,04,06,51,10.70
2024,05,04,06,52,10.70
2024,05,04,06,53,10.70
2024,05,04,06,54,10.70
2024,05,04,06,55,10.70
2024,05,04,06,56,10.70
2024,05,04,06,57,10.80
2024,05,04,06,58,10.80
2024,05,04,06,59,10.80
2024,05,04,07,00,10.80
2024,05,04,07,01,10.80
2024,05,04,07,02,10.90
2024,05,04,07,03,10.90
2024,05,04,07,04,10.90
2024,05,04,07,05,10.90
2024,05,04,07,06,10.90
2024,05,04,07,07,10.90
2024,05,04,07,08,10.90
2024,05,04,07,09,10.90
2024,05,04,07,10,10.90
2024,05,04,07,11,10.90
2024,05,04,07,12,10.90
2024,05,04,07,13,10.90
2024,05,04,07,14,10.90
2024,05,04,07,15,10.90
2024,05,04,07,16,11.00
2024,05,04,07,17,11.00
2024,05,04,07,18,11.00
2024,05,04,07,19,11.00
2024,05,04,07,20,11.00
2024,05,04,07,21,11.10
2024,05,04,07,22,11.10
2024,05,04,07,23,11.10
2024,05,04,07,24,11.10
2024,05,04,07,25,11.10
2024,05,04,07,26,11.10
2024,05,04,07,27,11.10
2024,05,04,07,28,11.10
2024,05,04,07,29,11.20
2024,05,04,07,30,11.20
2024,05,04,07,31,11.20
2024,05,04,07,32,11.20
2024,05,04,07,33,11.20
2024,05,04,07,34,11.20
2024,05,04,07,35,11.20
2024,05,04,07,36,11.30
2024,05,04,07,37,11.30
2024,05,04,07,38,11.30
2024,05,04,07,39,11.30
2024,05,04,07,40,11.30
2024,05,04,07,41,11.30
2024,05,04,07,42,11.30
2024,05,04,07,43,11.30
2024,05,04,07,44,11.30
2024,05,04,07,45,11.30
2024,05,04,07,46,11.40
2024,05,04,07,47,11.40
2024,05,04,07,48,11.40
2024,05,04,07,49,11.40
2024,05,04,07,50,11.50
2024,05,04,07,51,11.50
2024,05,04,07,52,11.60
2024,05,04,07,53,11.60
2024,05,04,07,54,11.70
2024,05,04,07,55,11.70
2024,05,04,07,56,11.70
2024,05,04,07,57,11.70
2024,05,04,07,58,11.70
2024,05,04,07,59,11.70
2024,05,04,08,00,11.70
2024,05,04,08,01,11.70
2024,05,04,08,02,11.70
2024,05,04,08,03,11.60
2024,05,04,08,04,11.60
2024,05,04,08,05,11.60
2024,05,04,08,06,11.60
2024,05,04,08,07,11.60
2024,05,04,08,08,11.60
2024,05,04,08,09,11.50
2024,05,04,08,10,11.50
2024,05,04,08,11,11.40
2024,05,04,08,12,11.40
2024,05,04,08,13,11.40
2024,05,04,08,14,11.40
2024,05,04,08,15,11.40
2024,05,04,08,16,11.50
2024,05,04,08,17,11.40
2024,05,04,08,18,11.40
2024,05,04,08,19,11.40
2024,05,04,08,20,11.40
2024,05,04,08,21,11.40
2024,05,04,08,22,11.50
2024,05,04,08,23,11.50
2024,05,04,08,24,11.50
2024,05,04,08,25,11.50
2024,05,04,08,26,11.40
2024,05,04,08,27,11.40
2024,05,04,08,28,11.40
2024,05,04,08,29,11.50
2024,05,04,08,30,11.50
2024,05,04,08,31,11.50
2024,05,04,08,32,11.60
2024,05,04,08,33,11.60
2024,05,04,08,34,11.50
2024,05,04,08,35,11.60
2024,05,04,08,36,11.60
2024,05,04,08,37,11.60
2024,05,04,08,38,11.60
2024,05,04,08,39,11.70
2024,05,04,08,40,11.70
2024,05,04,08,41,11.70
2024,05,04,08,42,11.80
2024,05,04,08,43,11.80
2024,05,04,08,44,11.90
2024,05,04,08,45,11.90
2024,05,04,08,46,11.90
2024,05,04,08,47,12.00
2024,05,04,08,48,12.10
2024,05,04,08,49,12.10
2024,05,04,08,50,12.20
2024,05,04,08,51,12.30
2024,05,04,08,52,12.30
2024,05,04,08,53,12.40
2024,05,04,08,54,12.40
2024,05,04,08,55,12.50
2024,05,04,08,56,12.50
2024,05,04,08,57,12.50
2024,05,04,08,58,12.50
2024,05,04,08,59,12.50
2024,05,04,09,00,12.50
2024,05,04,09,01,12.50
2024,05,04,09,02,12.40
2024,05,04,09,03,12.50
2024,05,04,09,04,12.40
2024,05,04,09,05,12.50
2024,05,04,09,06,12.40
2024,05,04,09,07,12.40
2024,05,04,09,08,12.40
2024,05,04,09,09,12.40
2024,05,04,09,10,12.40
2024,05,04,09,11,12.40
2024,05,04,09,12,12.40
2024,05,04,09,13,12.40
2024,05,04,09,14,12.40
2024,05,04,09,15,12.50
2024,05,04,09,16,12.50
2024,05,04,09,17,12.50
2024,05,04,09,18,12.50
2024,05,04,09,19,12.50
2024,05,04,09,20,12.40
2024,05,04,09,21,12.40
2024,05,04,09,22,12.40
2024,05,04,09,23,12.40
2024,05,04,09,24,12.40
2024,05,04,09,25,12.40
2024,05,04,09,26,12.40
2024,05,04,09,27,12.40
2024,05,04,09,28,12.40
2024,05,04,09,29,12.40
2024,05,04,09,30,12.50
2024,05,04,09,31,12.50
2024,05,04,09,32,12.50
2024,05,04,09,33,12.50
2024,05,04,09,34,12.50
2024,05,04,09,35,12.50
2024,05,04,09,36,12.50
2024,05,04,09,37,12.50
2024,05,04,09,38,12.50
2024,05,04,09,39,12.50
2024,05,04,09,40,12.50
2024,05,04,09,41,12.60
2024,05,04,09,42,12.60
2024,05,04,09,43,12.60
2024,05,04,09,44,12.60
2024,05,04,09,45,12.70
2024,05,04,09,46,12.70
2024,05,04,09,47,12.80
2024,05,04,09,48,12.80
2024,05,04,09,49,12.80
2024,05,04,09,50,12.80
2024,05,04,09,51,12.80
2024,05,04,09,52,12.80
2024,05,04,09,53,12.80
2024,05,04,09,54,12.80
2024,05,04,09,55,12.90
2024,05,04,09,56,12.90
2024,05,04,09,57,12.90
2024,05,04,09,58,13.00
2024,05,04,09,59,13.00
2024,05,04,10,00,13.10
2024,05,04,10,01,13.20
2024,05,04,10,02,13.30
2024,05,04,10,03,13.30
2024,05,04,10,04,13.40
2024,05,04,10,05,13.40
2024,05,04,10,06,13.40
2024,05,04,10,07,13.50
2024,05,04,10,08,13.40
2024,05,04,10,09,13.40
2024,05,04,10,10,13.40
2024,05,04,10,11,13.40
2024,05,04,10,12,13.40
2024,05,04,10,13,13.40
2024,05,04,10,14,13.40
2024,05,04,10,15,13.40
2024,05,04,10,16,13.40
2024,05,04,10,17,13.40
2024,05,04,10,18,13.40
2024,05,04,10,19,13.50
2024,05,04,10,20,13.50
2024,05,04,10,21,13.50
2024,05,04,10,22,13.50
2024,05,04,10,23,13.60
2024,05,04,10,24,13.60
2024,05,04,10,25,13.70
2024,05,04,10,26,13.70
2024,05,04,10,27,13.70
2024,05,04,10,28,13.80
2024,05,04,10,29,13.80
2024,05,04,10,30,13.80
2024,05,04,10,31,14.00
2024,05,04,10,32,14.00
2024,05,04,10,33,14.10
2024,05,04,10,34,14.20
2024,05,04,10,35,14.30
2024,05,04,10,36,14.30
2024,05,04,10,37,14.40
2024,05,04,10,38,14.30
2024,05,04,10,39,14.30
2024,05,04,10,40,14.30
2024,05,04,10,41,14.30
2024,05,04,10,42,14.30
2024,05,04,10,43,14.40
2024,05,04,10,44,14.40
2024,05,04,10,45,14.40
2024,05,04,10,46,14.40
2024,05,04,10,47,14.30
2024,05,04,10,48,14.30
2024,05,04,10,49,14.40
2024,05,04,10,50,14.40
2024,05,04,10,51,14.40
2024,05,04,10,52,14.40
2024,05,04,10,53,14.40
2024,05,04,10,54,14.50
2024,05,04,10,55,14.50
2024,05,04,10,56,14.50
2024,05,04,10,57,14.60
2024,05,04,10,58,14.70
2024,05,04,10,59,14.70
2024,05,04,11,00,14.80
2024,05,04,11,01,14.80
2024,05,04,11,02,14.80
2024,05,04,11,03,14.80
2024,05,04,11,04,14.80
2024,05,04,11,05,14.80
2024,05,04,11,06,14.90
2024,05,04,11,07,14.90
2024,05,04,11,08,14.90
2024,05,04,11,09,14.90
2024,05,04,11,10,14.90
2024,05,04,11,11,14.90
2024,05,04,11,12,14.90
2024,05,04,11,13,14.90
2024,05,04,11,14,14.90
2024,05,04,11,15,15.00
2024,05,04,11,16,15.00
2024,05,04,11,17,15.10
2024,05,04,11,18,15.10
2024,05,04,11,19,15.10
2024,05,04,11,20,15.10
2024,05,04,11,21,15.00
2024,05,04,11,22,15.00
2024,05,04,11,23,15.00
2024,05,04,11,24,15.00
2024,05,04,11,25,15.00
2024,05,04,11,26,15.10
2024,05,04,11,27,15.10
2024,05,04,11,28,15.10
2024,05,04,11,29,15.10
2024,05,04,11,30,15.10
2024,05,04,11,31,15.10
2024,05,04,11,32,15.20
2024,05,04,11,33,15.20
2024,05,04,11,34,15.30
2024,05,04,11,35,15.30
2024,05,04,11,36,15.30
2024,05,04,11,37,15.40
2024,05,04,11,38,15.40
2024,05,04,11,39,15.40
2024,05,04,11,40,15.40
2024,05,04,11,41,15.40
2024,05,04,11,42,15.40
2024,05,04,11,43,15.40
2024,05,04,11,44,15.30
2024,05,04,11,45,15.30
2024,05,04,11,46,15.30
2024,05,04,11,47,15.40
2024,05,04,11,48,15.40
2024,05,04,11,49,15.40
2024,05,04,11,50,15.50
2024,05,04,11,51,15.50
2024,05,04,11,52,15.50
2024,05,04,11,53,15.60
2024,05,04,11,54,15.70
2024,05,04,11,55,15.70
2024,05,04,11,56,15.70
2024,05,04,11,57,15.80
2024,05,04,11,58,15.80
2024,05,04,11,59,15.90
2024,05,04,12,00,16.00
2024,05,04,12,01,16.00
2024,05,04,12,02,16.10
2024,05,04,12,03,16.10
2024,05,04,12,04,16.10
2024,05,04,12,05,16.20
2024,05,04,12,06,16.20
2024,05,04,12,07,16.20
2024,05,04,12,08,16.20
2024,05,04,12,09,16.30
2024,05,04,12,10,16.30
2024,05,04,12,11,16.30
2024,05,04,12,12,16.30
2024,05,04,12,13,16.30
2024,05,04,12,14,16.30
2024,05,04,12,15,16.30
2024,05,04,12,16,16.40
2024,05,04,12,17,16.40
2024,05,04,12,18,16.50
2024,05,04,12,19,16.60
2024,05,04,12,20,16.70
2024,05,04,12,21,16.70
2024,05,04,12,22,16.80
2024,05,04,12,23,16.80
2024,05,04,12,24,16.80
2024,05,04,12,25,16.80
2024,05,04,12,26,16.80
2024,05,04,12,27,16.90
2024,05,04,12,28,16.90
2024,05,04,12,29,17.00
2024,05,04,12,30,17.00
2024,05,04,12,31,17.10
2024,05,04,12,32,17.10
2024,05,04,12,33,17.10
2024,05,04,12,34,17.10
2024,05,04,12,35,17.20
2024,05,04,12,36,17.10
2024,05,04,12,37,17.10
2024,05,04,12,38,17.00
2024,05,04,12,39,16.90
2024,05,04,12,40,16.90
2024,05,04,12,41,16.80
2024,05,04,12,42,16.80
2024,05,04,12,43,16.90
2024,05,04,12,44,16.90
2024,05,04,12,45,17.00
2024,05,04,12,46,17.00
2024,05,04,12,47,17.10
2024,05,04,12,48,17.10
2024,05,04,12,49,17.20
2024,05,04,12,50,17.20
2024,05,04,12,51,17.30
2024,05,04,12,52,17.30
2024,05,04,12,53,17.40
2024,05,04,12,54,17.40
2024,05,04,12,55,17.40
2024,05,04,12,56,17.50
2024,05,04,12,57,17.50
2024,05,04,12,58,17.60
2024,05,04,12,59,17.60
2024,05,04,13,00,17.60
2024,05,04,13,01,17.80
2024,05,04,13,02,17.80
2024,05,04,13,03,17.90
2024,05,04,13,04,17.90
2024,05,04,13,05,17.80
2024,05,04,13,06,17.80
2024,05,04,13,07,17.70
2024,05,04,13,08,17.60
2024,05,04,13,09,17.50
2024,05,04,13,10,17.50
2024,05,04,13,11,17.50
2024,05,04,13,12,17.60
2024,05,04,13,13,17.60
2024,05,04,13,14,17.70
2024,05,04,13,15,17.80
2024,05,04,13,16,18.00
2024,05,04,13,17,18.10
2024,05,04,13,18,18.20
2024,05,04,13,19,18.30
2024,05,04,13,20,18.40
2024,05,04,13,21,18.50
2024,05,04,13,22,18.50
2024,05,04,13,23,18.40
2024,05,04,13,24,18.30
2024,05,04,13,25,18.20
2024,05,04,13,26,18.00
2024,05,04,13,27,17.80
2024,05,04,13,28,17.50
2024,05,04,13,29,17.30
2024,05,04,13,30,17.00
2024,05,04,13,31,16.90
2024,05,04,13,32,16.80
2024,05,04,13,33,16.70
2024,05,04,13,34,16.70
2024,05,04,13,35,16.70
2024,05,04,13,36,16.60
2024,05,04,13,37,16.70
2024,05,04,13,38,16.60
2024,05,04,13,39,16.60
2024,05,04,13,40,16.50
2024,05,04,13,41,16.50
2024,05,04,13,42,16.40
2024,05,04,13,43,16.40
2024,05,04,13,44,16.40
2024,05,04,13,45,16.40
2024,05,04,13,46,16.30
2024,05,04,13,47,16.30
2024,05,04,13,48,16.30
2024,05,04,13,49,16.30
2024,05,04,13,50,16.30
2024,05,04,13,54,16.40
2024,05,04,13,55,16.40
2024,05,04,13,56,16.40
2024,05,04,14,07,16.90
2024,05,04,14,11,17.20
2024,05,04,14,12,17.20
2024,05,04,14,13,17.30
2024,05,04,14,14,17.30
2024,05,04,14,15,17.30
2024,05,04,14,16,17.40
2024,05,04,14,17,17.40
2024,05,04,14,18,17.40
2024,05,04,14,19,17.40
2024,05,04,14,20,17.40
2024,05,04,14,21,17.50
2024,05,04,14,22,17.60
2024,05,04,14,23,17.60
2024,05,04,14,24,17.70
2024,05,04,14,25,17.70
2024,05,04,14,26,17.70
2024,05,04,14,27,17.80
2024,05,04,14,28,17.80
2024,05,04,14,29,17.80
2024,05,04,14,30,17.80
2024,05,04,14,31,17.90
2024,05,04,14,32,17.90
2024,05,04,14,33,18.00
2024,05,04,14,34,18.00
2024,05,04,14,35,18.00
2024,05,04,14,36,18.10
2024,05,04,14,37,18.10
2024,05,04,14,38,18.10
2024,05,04,14,39,18.20
2024,05,04,14,40,18.20
2024,05,04,14,41,18.30
2024,05,04,14,42,18.30
2024,05,04,14,43,18.30
2024,05,04,14,44,18.30
2024,05,04,14,45,18.40
2024,05,04,14,46,18.40
2024,05,04,14,47,18.40
2024,05,04,14,48,18.40
2024,05,04,14,49,18.40
2024,05,04,14,50,18.40
2024,05,04,14,51,18.40
2024,05,04,14,52,18.40
2024,05,04,14,53,18.40
2024,05,04,14,54,18.40
2024,05,04,14,55,18.40
2024,05,04,14,56,18.40
2024,05,04,14,57,18.40
2024,05,04,14,58,18.40
2024,05,04,14,59,18.40
2024,05,04,15,00,18.40
2024,05,04,15,01,18.40
2024,05,04,15,02,18.40
2024,05,04,15,03,18.40
2024,05,04,15,04,18.40
2024,05,04,15,05,18.40
2024,05,04,15,06,18.40
2024,05,04,15,09,18.30
2024,05,04,15,10,18.30
2024,05,04,15,11,18.20
2024,05,04,15,17,18.20
2024,05,04,15,18,18.20
2024,05,04,15,20,18.20
2024,05,04,15,21,18.20
2024,05,04,15,25,18.20
2024,05,04,15,26,18.20
2024,05,04,15,27,18.20
2024,05,04,15,28,18.20
2024,05,04,15,29,18.20
2024,05,04,15,30,18.20
2024,05,04,15,31,18.20
2024,05,04,15,33,18.20
2024,05,04,15,34,18.20
2024,05,04,15,35,18.20
2024,05,04,15,36,18.30
2024,05,04,15,37,18.30
2024,05,04,15,38,18.30
2024,05,04,15,39,18.30
2024,05,04,15,41,18.40
2024,05,04,15,42,18.40
2024,05,04,15,43,18.50
2024,05,04,15,44,18.50
2024,05,04,15,45,18.50
2024,05,04,15,46,18.50
2024,05,04,15,47,18.60
2024,05,04,15,48,18.60
2024,05,04,15,49,18.60
2024,05,04,15,50,18.60
2024,05,04,15,51,18.60
2024,05,04,15,52,18.60
2024,05,04,15,53,18.60
2024,05,04,15,54,18.70
2024,05,04,15,55,18.60
2024,05,04,15,56,18.60
2024,05,04,15,57,18.60
2024,05,04,15,58,18.70
2024,05,04,15,59,18.70
2024,05,04,16,00,18.60
2024,05,04,16,01,18.70
2024,05,04,16,02,18.70
2024,05,04,16,03,18.70
2024,05,04,16,04,18.70
2024,05,04,16,05,18.70
2024,05,04,16,06,18.70
2024,05,04,16,07,18.70
2024,05,04,16,08,18.80
2024,05,04,16,09,18.80
2024,05,04,16,10,18.80
2024,05,04,16,11,18.80
2024,05,04,16,12,18.90
2024,05,04,16,13,18.90
2024,05,04,16,14,18.90
2024,05,04,16,15,19.00
2024,05,04,16,16,19.00
2024,05,04,16,17,19.00
2024,05,04,16,18,19.10
2024,05,04,16,19,19.10
2024,05,04,16,20,19.10
2024,05,04,16,21,19.10
2024,05,04,16,22,19.20
2024,05,04,16,23,19.20
2024,05,04,16,24,19.30
2024,05,04,16,25,19.30
2024,05,04,16,26,19.30
2024,05,04,16,27,19.40
2024,05,04,16,28,19.40
2024,05,04,16,29,19.50
2024,05,04,16,30,19.60
2024,05,04,16,31,19.60
2024,05,04,16,32,19.70
2024,05,04,16,33,19.80
2024,05,04,16,34,19.80
2024,05,04,16,35,19.80
2024,05,04,16,36,19.90
2024,05,04,16,37,19.90
2024,05,04,16,38,20.00
2024,05,04,16,39,20.00
2024,05,04,16,40,20.10
2024,05,04,16,41,20.10
2024,05,04,16,42,20.00
2024,05,04,16,43,19.90
2024,05,04,16,44,19.80
2024,05,04,16,48,19.10
2024,05,04,16,49,18.90
2024,05,04,16,50,18.80
2024,05,04,16,51,18.70
2024,05,04,16,52,18.50
2024,05,04,16,53,18.40
2024,05,04,16,54,18.20
2024,05,04,16,55,18.20
2024,05,04,16,56,18.10
2024,05,04,16,57,18.00
2024,05,04,16,58,18.00
2024,05,04,16,59,17.90
2024,05,04,17,00,17.90
2024,05,04,17,01,17.90
2024,05,04,17,02,17.80
2024,05,04,17,03,17.80
2024,05,04,17,04,17.80
2024,05,04,17,05,17.80
2024,05,04,17,06,17.80
2024,05,04,17,07,17.80
2024,05,04,17,08,17.70
2024,05,04,17,09,17.70
2024,05,04,17,10,17.70
2024,05,04,17,11,17.70
2024,05,04,17,12,17.70
2024,05,04,17,13,17.70
2024,05,04,17,14,17.80
2024,05,04,17,15,17.80
2024,05,04,17,16,17.80
2024,05,04,17,17,17.90
2024,05,04,17,18,17.90
2024,05,04,17,19,18.00
2024,05,04,17,20,18.00
2024,05,04,17,21,18.10
2024,05,04,17,22,18.10
2024,05,04,17,23,18.20
2024,05,04,17,24,18.20
2024,05,04,17,25,18.30
2024,05,04,17,26,18.30
2024,05,04,17,27,18.30
2024,05,04,17,28,18.30
2024,05,04,17,29,18.40
2024,05,04,17,30,18.40
2024,05,04,17,31,18.50
2024,05,04,17,32,18.60
2024,05,04,17,33,18.70
2024,05,04,17,34,18.70
2024,05,04,17,35,18.70
2024,05,04,17,36,18.50
2024,05,04,17,37,18.20
2024,05,04,17,38,17.80
2024,05,04,17,39,17.50
2024,05,04,17,40,17.30
2024,05,04,17,41,17.10
2024,05,04,17,42,16.90
2024,05,04,17,43,16.70
2024,05,04,17,44,16.60
2024,05,04,17,45,16.40
2024,05,04,17,46,16.30
2024,05,04,17,47,16.20
2024,05,04,17,48,16.10
2024,05,04,17,49,16.00
2024,05,04,17,50,15.90
2024,05,04,17,51,15.90